Location: Limoges
(45.8500°N, 1.2500°E)
Time: 02:15:14
(UTC+02:00)

ISS - Pass Details

Date: 27 September 2021
Orbit: 417 x 423 km, 51.6° (Epoch: 21 October)

Event Time Altitude Azimuth Distance (km) Brightness Sun altitude
Rises 20:08:14 0° 282° (WNW) 2,362 2.4 -5.3°
Reaches altitude 10° 20:10:30 10° 293° (WNW) 1,499 0.4 -5.7°
Maximum altitude 20:13:30 29° 356° (N) 796 -2.3 -6.2°
Drops below altitude 10° 20:16:31 10° 60° (ENE) 1,503 -1.4 -6.7°
Enters shadow 20:17:18 - 65° (ENE) 1,793 -1.1 -6.9°
